| time (UTC) | temp C | wind direction | speed KPH | gust KPH | rain 1hr cm | rain 24hr cm | rain mn cm | humidity % | barometer mb |
| 20260502152028 | 11 | 280 | 8.0 | 12.9 | 0.00 | 0.00 | 0.00 | 45 | 1022.5 |
| 20260502151524 | 11 | 269 | 9.7 | 9.7 | 0.00 | 0.00 | 0.00 | 47 | 1022.4 |
| 20260502151022 | 11 | 265 | 8.0 | 9.7 | 0.00 | 0.00 | 0.00 | 47 | 1022.5 |
| 20260502150519 | 11 | 211 | 1.6 | 3.2 | 0.00 | 0.00 | 0.00 | 49 | 1022.4 |
| 20260502130404 | 2 | 210 | 3.2 | 4.8 | 0.00 | 0.00 | 0.00 | 80 | 1022.7 |
| 20260502123341 | 1 | 197 | 3.2 | 4.8 | 0.00 | 0.00 | 0.00 | 80 | 1022.3 |
| 20260502122838 | 1 | 214 | 4.8 | 4.8 | 0.00 | 0.00 | 0.00 | 80 | 1022.5 |
| 20260502122333 | 1 | 233 | 3.2 | 6.4 | 0.00 | 0.00 | 0.00 | 80 | 1022.5 |
| 20260502121833 | 1 | 220 | 4.8 | 6.4 | 0.00 | 0.00 | 0.00 | 81 | 1022.5 |
| 20260502121329 | 1 | 241 | 4.8 | 6.4 | 0.00 | 0.00 | 0.00 | 80 | 1022.5 |
| 20260502120826 | 1 | 226 | 3.2 | 4.8 | 0.00 | 0.00 | 0.00 | 80 | 1022.5 |
| 20260502120322 | 1 | 95 | 0.0 | 3.2 | 0.00 | 0.00 | 0.00 | 81 | 1022.4 |
| 20260502115820 | 1 | 158 | 1.6 | 3.2 | 0.00 | 0.00 | 0.00 | 83 | 1022.3 |
| 20260502115317 | 1 | 114 | 0.0 | 3.2 | 0.00 | 0.00 | 0.00 | 86 | 1022.2 |
| 20260502114814 | 1 | 248 | 1.6 | 3.2 | 0.00 | 0.00 | 0.00 | 85 | 1022.2 |
| 20260502114310 | 1 | 219 | 0.0 | 3.2 | 0.00 | 0.00 | 0.00 | 85 | 1022.3 |
| 20260502113808 | 1 | 208 | 1.6 | 3.2 | 0.00 | 0.00 | 0.00 | 84 | 1022.3 |
| 20260502113305 | 1 | 210 | 3.2 | 3.2 | 0.00 | 0.00 | 0.00 | 85 | 1022.2 |
| 20260502112803 | 1 | 242 | 3.2 | 4.8 | 0.00 | 0.00 | 0.00 | 85 | 1022.1 |
| 20260502112300 | 1 | 187 | 1.6 | 3.2 | 0.00 | 0.00 | 0.00 | 88 | 1022.2 |
| 20260502111757 | 1 | 246 | 3.2 | 4.8 | 0.00 | 0.00 | 0.00 | 86 | 1022.3 |
| 20260502111255 | 1 | 219 | 3.2 | 4.8 | 0.00 | 0.00 | 0.00 | 87 | 1022.2 |
| 20260502110752 | 0 | 238 | 1.6 | 4.8 | 0.00 | 0.00 | 0.00 | 84 | 1022.1 |
| 20260502110250 | 1 | 254 | 1.6 | 6.4 | 0.00 | 0.00 | 0.00 | 85 | 1022.3 |
| 20260502105748 | 1 | 221 | 3.2 | 4.8 | 0.00 | 0.00 | 0.00 | 84 | 1022.2 |
| 20260502105243 | 1 | 199 | 1.6 | 4.8 | 0.00 | 0.00 | 0.00 | 84 | 1022.2 |
| 20260502104742 | 1 | 221 | 0.0 | 4.8 | 0.00 | 0.00 | 0.00 | 84 | 1022.3 |
| 20260502104239 | 1 | 250 | 0.0 | 4.8 | 0.00 | 0.00 | 0.00 | 85 | 1022.2 |
| 20260502103737 | 1 | 215 | 3.2 | 6.4 | 0.00 | 0.00 | 0.00 | 83 | 1022.4 |
| 20260502103234 | 1 | 187 | 3.2 | 6.4 | 0.00 | 0.00 | 0.00 | 81 | 1022.1 |
| 20260502102730 | 1 | 283 | 3.2 | 4.8 | 0.00 | 0.00 | 0.00 | 81 | 1022.1 |
| 20260502102227 | 2 | 253 | 3.2 | 3.2 | 0.00 | 0.00 | 0.00 | 81 | 1022.2 |
| 20260502101726 | 2 | 222 | 1.6 | 4.8 | 0.00 | 0.00 | 0.00 | 81 | 1022.1 |
| 20260502101224 | 2 | 224 | 1.6 | 3.2 | 0.00 | 0.00 | 0.00 | 81 | 1022.2 |
| 20260502100721 | 1 | 237 | 0.0 | 3.2 | 0.00 | 0.00 | 0.00 | 82 | 1021.9 |
| 20260502100219 | 1 | 156 | 0.0 | 3.2 | 0.00 | 0.00 | 0.00 | 84 | 1022.1 |
| 20260502091153 | 2 | 211 | 3.2 | 4.8 | 0.00 | 0.00 | 0.00 | 81 | 1021.6 |
| 20260502090650 | 2 | 258 | 1.6 | 3.2 | 0.00 | 0.00 | 0.00 | 83 | 1021.7 |
| 20260502090148 | 2 | 289 | 3.2 | 3.2 | 0.00 | 0.00 | 0.00 | 85 | 1021.6 |
| 20260502080110 | 3 | 331 | 4.8 | 4.8 | 0.00 | 0.00 | 0.00 | 74 | 1021.6 |
| 20260502071043 | 3 | 317 | 1.6 | 4.8 | 0.00 | 0.00 | 0.00 | 75 | 1021.6 |
| 20260502070541 | 3 | 302 | 3.2 | 4.8 | 0.00 | 0.00 | 0.00 | 74 | 1021.7 |
| 20260502070039 | 3 | 313 | 1.6 | 3.2 | 0.00 | 0.00 | 0.00 | 74 | 1021.8 |
| 20260502065537 | 3 | 197 | 0.0 | 1.6 | 0.00 | 0.00 | 0.00 | 77 | 1021.7 |
| 20260502065034 | 4 | 261 | 3.2 | 4.8 | 0.00 | 0.00 | 0.00 | 77 | 1021.8 |
| 20260502064532 | 4 | 280 | 1.6 | 3.2 | 0.00 | 0.00 | 0.00 | 72 | 1021.7 |
| 20260502064024 | 4 | 261 | 1.6 | 4.8 | 0.00 | 0.00 | 0.00 | 76 | 1021.6 |
| 20260502063522 | 4 | 312 | 3.2 | 3.2 | 0.00 | 0.00 | 0.00 | 74 | 1021.8 |
| 20260502063019 | 5 | 283 | 1.6 | 3.2 | 0.00 | 0.00 | 0.00 | 74 | 1021.7 |
| 20260502062516 | 5 | 282 | 0.0 | 3.2 | 0.00 | 0.00 | 0.00 | 72 | 1021.9 |
| 20260502062015 | 5 | 284 | 3.2 | 4.8 | 0.00 | 0.00 | 0.00 | 73 | 1021.9 |
| 20260502061512 | 5 | 258 | 1.6 | 3.2 | 0.00 | 0.00 | 0.00 | 74 | 1021.6 |
| 20260502061009 | 5 | 325 | 3.2 | 3.2 | 0.00 | 0.00 | 0.00 | 70 | 1021.8 |
| 20260502060503 | 5 | 295 | 3.2 | 3.2 | 0.00 | 0.00 | 0.00 | 73 | 1021.4 |
| 20260502060000 | 5 | 292 | 0.0 | 3.2 | 0.00 | 0.00 | 0.00 | 75 | 1021.7 |
| 20260502055458 | 5 | 276 | 0.0 | 0.0 | 0.00 | 0.00 | 0.00 | 70 | 1021.6 |
| 20260502054957 | 5 | 246 | 0.0 | 0.0 | 0.00 | 0.00 | 0.00 | 72 | 1021.4 |
| 20260502054455 | 5 | 311 | 0.0 | 3.2 | 0.00 | 0.00 | 0.00 | 70 | 1021.6 |
| 20260502053952 | 5 | 269 | 0.0 | 3.2 | 0.00 | 0.00 | 0.00 | 72 | 1021.4 |
| 20260502053449 | 5 | 286 | 1.6 | 3.2 | 0.00 | 0.00 | 0.00 | 72 | 1021.5 |
| 20260502052947 | 5 | 271 | 0.0 | 3.2 | 0.00 | 0.00 | 0.00 | 74 | 1021.5 |
| 20260502052445 | 5 | 283 | 1.6 | 3.2 | 0.00 | 0.00 | 0.00 | 73 | 1021.3 |
| 20260502051943 | 6 | 267 | 3.2 | 3.2 | 0.00 | 0.00 | 0.00 | 71 | 1021.4 |
| 20260502051441 | 6 | 269 | 3.2 | 3.2 | 0.00 | 0.00 | 0.00 | 67 | 1021.4 |
| 20260502050937 | 6 | 259 | 3.2 | 3.2 | 0.00 | 0.00 | 0.00 | 68 | 1021.5 |
| 20260502050434 | 6 | 287 | 1.6 | 3.2 | 0.00 | 0.00 | 0.00 | 72 | 1021.2 |
| 20260502045931 | 6 | 18 | 0.0 | 1.6 | 0.00 | 0.00 | 0.00 | 74 | 1021.4 |
| 20260502045428 | 6 | 321 | 0.0 | 1.6 | 0.00 | 0.00 | 0.00 | 70 | 1021.3 |
| 20260502044925 | 6 | 147 | 0.0 | 1.6 | 0.00 | 0.00 | 0.00 | 67 | 1021.2 |
| 20260502044421 | 6 | 283 | 0.0 | 3.2 | 0.00 | 0.00 | 0.00 | 71 | 1021.2 |
| 20260502043918 | 6 | 326 | 0.0 | 0.0 | 0.00 | 0.00 | 0.00 | 73 | 1021.1 |
| 20260502043416 | 7 | 49 | 1.6 | 3.2 | 0.00 | 0.00 | 0.00 | 70 | 1021.1 |
| 20260502042915 | 7 | 289 | 1.6 | 1.6 | 0.00 | 0.00 | 0.00 | 67 | 1021.2 |
| 20260502042413 | 7 | 287 | 1.6 | 3.2 | 0.00 | 0.00 | 0.00 | 66 | 1021.2 |
| 20260502041909 | 7 | 299 | 3.2 | 3.2 | 0.00 | 0.00 | 0.00 | 66 | 1021.2 |
| 20260502041407 | 7 | 313 | 3.2 | 3.2 | 0.00 | 0.00 | 0.00 | 66 | 1021.3 |
| 20260502040904 | 7 | 34 | 1.6 | 3.2 | 0.00 | 0.00 | 0.00 | 68 | 1021.3 |
| 20260502040400 | 7 | 6 | 1.6 | 4.8 | 0.00 | 0.00 | 0.00 | 65 | 1021.0 |
| 20260502035856 | 8 | 353 | 3.2 | 4.8 | 0.00 | 0.00 | 0.00 | 65 | 1021.1 |
| 20260502035353 | 8 | 356 | 3.2 | 4.8 | 0.00 | 0.00 | 0.00 | 64 | 1021.0 |
| 20260502034851 | 8 | 15 | 3.2 | 4.8 | 0.00 | 0.00 | 0.00 | 65 | 1021.0 |
| 20260502034349 | 8 | 357 | 3.2 | 4.8 | 0.00 | 0.00 | 0.00 | 67 | 1021.1 |
| 20260502033848 | 8 | 5 | 3.2 | 3.2 | 0.00 | 0.00 | 0.00 | 64 | 1020.8 |
| 20260502033345 | 8 | 7 | 3.2 | 3.2 | 0.00 | 0.00 | 0.00 | 65 | 1021.0 |
| 20260502032841 | 8 | 4 | 3.2 | 4.8 | 0.00 | 0.00 | 0.00 | 64 | 1021.0 |
| 20260502032337 | 8 | 332 | 3.2 | 4.8 | 0.00 | 0.00 | 0.00 | 60 | 1020.8 |
| 20260502031835 | 8 | 350 | 1.6 | 3.2 | 0.00 | 0.00 | 0.00 | 65 | 1020.6 |
| 20260502031333 | 8 | 355 | 3.2 | 3.2 | 0.00 | 0.00 | 0.00 | 64 | 1021.1 |
| 20260502030831 | 8 | 337 | 4.8 | 4.8 | 0.00 | 0.00 | 0.00 | 63 | 1021.0 |
| 20260502030329 | 9 | 332 | 4.8 | 4.8 | 0.00 | 0.00 | 0.00 | 61 | 1020.7 |
| 20260502025826 | 9 | 357 | 3.2 | 3.2 | 0.00 | 0.00 | 0.00 | 53 | 1021.0 |
| 20260502025324 | 9 | 12 | 3.2 | 4.8 | 0.00 | 0.00 | 0.00 | 51 | 1020.5 |
| 20260502024821 | 9 | 45 | 3.2 | 3.2 | 0.00 | 0.00 | 0.00 | 51 | 1020.6 |
| 20260502024319 | 10 | 42 | 4.8 | 6.4 | 0.00 | 0.00 | 0.00 | 50 | 1020.5 |
| 20260502023817 | 10 | 9 | 3.2 | 6.4 | 0.00 | 0.00 | 0.00 | 49 | 1020.5 |
| 20260502023315 | 10 | 12 | 3.2 | 4.8 | 0.00 | 0.00 | 0.00 | 49 | 1020.4 |
| 20260502022812 | 10 | 25 | 6.4 | 8.0 | 0.00 | 0.00 | 0.00 | 47 | 1020.3 |
| 20260502022309 | 10 | 18 | 4.8 | 6.4 | 0.00 | 0.00 | 0.00 | 47 | 1020.4 |
| 20260502021805 | 10 | 1 | 6.4 | 6.4 | 0.00 | 0.00 | 0.00 | 46 | 1020.1 |
| 20260502021302 | 11 | 11 | 4.8 | 6.4 | 0.00 | 0.00 | 0.00 | 45 | 1020.1 |
| 20260502020759 | 11 | 9 | 6.4 | 9.7 | 0.00 | 0.00 | 0.00 | 43 | 1020.2 |
| 20260502020257 | 11 | 26 | 6.4 | 11.3 | 0.00 | 0.00 | 0.00 | 43 | 1020.1 |
| 20260502015755 | 11 | 358 | 8.0 | 9.7 | 0.00 | 0.00 | 0.00 | 42 | 1020.0 |
| 20260502015251 | 11 | 10 | 4.8 | 8.0 | 0.00 | 0.00 | 0.00 | 43 | 1019.8 |
| 20260502014748 | 11 | 6 | 8.0 | 9.7 | 0.00 | 0.00 | 0.00 | 41 | 1019.9 |
| 20260502014245 | 11 | 10 | 6.4 | 17.7 | 0.00 | 0.00 | 0.00 | 40 | 1019.7 |
| 20260502013741 | 11 | 19 | 8.0 | 11.3 | 0.00 | 0.00 | 0.00 | 41 | 1019.8 |
| 20260502013236 | 11 | 9 | 9.7 | 12.9 | 0.00 | 0.00 | 0.00 | 39 | 1019.5 |
| 20260502012734 | 12 | 12 | 9.7 | 16.1 | 0.00 | 0.00 | 0.00 | 39 | 1019.8 |
| 20260502012232 | 12 | 16 | 9.7 | 11.3 | 0.00 | 0.00 | 0.00 | 39 | 1019.7 |
| 20260502011729 | 12 | 353 | 14.5 | 16.1 | 0.00 | 0.00 | 0.00 | 38 | 1019.5 |
| 20260502011224 | 12 | 13 | 6.4 | 14.5 | 0.00 | 0.00 | 0.00 | 39 | 1019.4 |
| 20260502010723 | 12 | 15 | 12.9 | 19.3 | 0.00 | 0.00 | 0.00 | 38 | 1019.5 |
| 20260502010218 | 12 | 6 | 6.4 | 16.1 | 0.00 | 0.00 | 0.00 | 40 | 1019.4 |
| 20260502005715 | 12 | 14 | 9.7 | 14.5 | 0.00 | 0.00 | 0.00 | 37 | 1019.3 |
| 20260502005213 | 13 | 355 | 9.7 | 17.7 | 0.00 | 0.00 | 0.00 | 38 | 1019.3 |
| 20260502004709 | 13 | 17 | 11.3 | 17.7 | 0.00 | 0.00 | 0.00 | 35 | 1019.1 |
| 20260502004206 | 13 | 0 | 17.7 | 20.9 | 0.00 | 0.00 | 0.00 | 34 | 1019.2 |
| 20260502003704 | 13 | 355 | 9.7 | 17.7 | 0.00 | 0.00 | 0.00 | 38 | 1019.2 |
| 20260502003201 | 13 | 351 | 8.0 | 17.7 | 0.00 | 0.00 | 0.00 | 35 | 1019.1 |
| 20260502002656 | 13 | 345 | 14.5 | 17.7 | 0.00 | 0.00 | 0.00 | 36 | 1019.1 |
| 20260502002155 | 13 | 347 | 11.3 | 22.5 | 0.00 | 0.00 | 0.00 | 38 | 1019.0 |
| 20260502001652 | 13 | 358 | 6.4 | 24.1 | 0.00 | 0.00 | 0.00 | 36 | 1019.1 |
| 20260502001149 | 13 | 347 | 16.1 | 19.3 | 0.00 | 0.00 | 0.00 | 36 | 1019.2 |
| 20260502000647 | 13 | 1 | 12.9 | 19.3 | 0.00 | 0.00 | 0.00 | 37 | 1019.0 |
| 20260502000144 | 13 | 353 | 17.7 | 19.3 | 0.00 | 0.00 | 0.00 | 37 | 1019.0 |
| 20260501235640 | 13 | 346 | 17.7 | 27.4 | 0.00 | 0.00 | 0.00 | 37 | 1019.0 |
| 20260501235136 | 13 | 11 | 11.3 | 17.7 | 0.00 | 0.00 | 0.00 | 34 | 1019.1 |
| 20260501234632 | 13 | 0 | 9.7 | 22.5 | 0.00 | 0.00 | 0.00 | 34 | 1019.2 |
| 20260501234129 | 13 | 352 | 11.3 | 19.3 | 0.00 | 0.00 | 0.00 | 36 | 1018.9 |
| 20260501233627 | 13 | 350 | 20.9 | 30.6 | 0.00 | 0.00 | 0.00 | 35 | 1019.2 |
| 20260501233124 | 13 | 21 | 6.4 | 22.5 | 0.00 | 0.00 | 0.00 | 35 | 1019.2 |
| 20260501232620 | 13 | 345 | 17.7 | 32.2 | 0.00 | 0.00 | 0.00 | 36 | 1019.0 |
| 20260501232118 | 13 | 356 | 9.7 | 20.9 | 0.00 | 0.00 | 0.00 | 35 | 1019.1 |
| 20260501231615 | 13 | 20 | 17.7 | 22.5 | 0.00 | 0.00 | 0.00 | 33 | 1019.1 |
| 20260501231114 | 13 | 343 | 12.9 | 22.5 | 0.00 | 0.00 | 0.00 | 35 | 1019.0 |
| 20260501230612 | 13 | 340 | 22.5 | 25.7 | 0.00 | 0.00 | 0.00 | 36 | 1018.9 |
| 20260501230110 | 13 | 348 | 17.7 | 33.8 | 0.00 | 0.00 | 0.00 | 34 | 1019.0 |
| 20260501225608 | 13 | 342 | 14.5 | 20.9 | 0.00 | 0.00 | 0.00 | 34 | 1019.0 |
| 20260501225103 | 13 | 345 | 14.5 | 27.4 | 0.00 | 0.00 | 0.00 | 35 | 1018.9 |
| 20260501224600 | 13 | 334 | 17.7 | 24.1 | 0.00 | 0.00 | 0.00 | 36 | 1018.8 |
| 20260501224057 | 13 | 357 | 9.7 | 17.7 | 0.00 | 0.00 | 0.00 | 31 | 1019.0 |
| 20260501223554 | 13 | 331 | 27.4 | 30.6 | 0.00 | 0.00 | 0.00 | 34 | 1018.8 |
| 20260501223050 | 14 | 354 | 12.9 | 17.7 | 0.00 | 0.00 | 0.00 | 33 | 1019.0 |
| 20260501222546 | 13 | 325 | 19.3 | 29.0 | 0.00 | 0.00 | 0.00 | 35 | 1018.7 |
| 20260501222043 | 13 | 21 | 9.7 | 22.5 | 0.00 | 0.00 | 0.00 | 33 | 1018.8 |
| 20260501221540 | 13 | 5 | 11.3 | 27.4 | 0.00 | 0.00 | 0.00 | 32 | 1018.9 |
| 20260501221038 | 13 | 331 | 16.1 | 27.4 | 0.00 | 0.00 | 0.00 | 34 | 1018.8 |
| 20260501220535 | 13 | 283 | 17.7 | 24.1 | 0.00 | 0.00 | 0.00 | 32 | 1018.8 |
| 20260501220032 | 13 | 348 | 9.7 | 17.7 | 0.00 | 0.00 | 0.00 | 32 | 1018.7 |
| 20260501215528 | 13 | 350 | 16.1 | 22.5 | 0.00 | 0.00 | 0.00 | 32 | 1018.8 |
| 20260501215023 | 13 | 340 | 17.7 | 29.0 | 0.00 | 0.00 | 0.00 | 34 | 1018.9 |
| 20260501214519 | 13 | 341 | 14.5 | 30.6 | 0.00 | 0.00 | 0.00 | 34 | 1018.7 |
| 20260501214015 | 13 | 9 | 11.3 | 27.4 | 0.00 | 0.00 | 0.00 | 32 | 1018.7 |
| 20260501213512 | 13 | 320 | 20.9 | 27.4 | 0.00 | 0.00 | 0.00 | 32 | 1019.0 |
| 20260501213008 | 13 | 332 | 17.7 | 27.4 | 0.00 | 0.00 | 0.00 | 34 | 1019.0 |
| 20260501212504 | 14 | 358 | 19.3 | 22.5 | 0.00 | 0.00 | 0.00 | 31 | 1018.7 |
| 20260501212002 | 14 | 21 | 14.5 | 19.3 | 0.00 | 0.00 | 0.00 | 32 | 1019.0 |
| 20260501211458 | 13 | 12 | 11.3 | 22.5 | 0.00 | 0.00 | 0.00 | 32 | 1019.0 |
| 20260501210956 | 13 | 312 | 20.9 | 24.1 | 0.00 | 0.00 | 0.00 | 32 | 1019.1 |
| 20260501210452 | 13 | 345 | 6.4 | 29.0 | 0.00 | 0.00 | 0.00 | 35 | 1018.9 |
| 20260501205949 | 13 | 28 | 9.7 | 25.7 | 0.00 | 0.00 | 0.00 | 34 | 1019.0 |
| 20260501205446 | 13 | 326 | 24.1 | 30.6 | 0.00 | 0.00 | 0.00 | 36 | 1018.8 |
| 20260501204943 | 13 | 348 | 16.1 | 29.0 | 0.00 | 0.00 | 0.00 | 36 | 1019.1 |
| 20260501204439 | 13 | 351 | 14.5 | 24.1 | 0.00 | 0.00 | 0.00 | 37 | 1019.1 |
| 20260501203935 | 13 | 355 | 12.9 | 27.4 | 0.00 | 0.00 | 0.00 | 36 | 1019.1 |
| 20260501203432 | 13 | 332 | 24.1 | 27.4 | 0.00 | 0.00 | 0.00 | 38 | 1019.0 |
| 20260501202930 | 13 | 341 | 20.9 | 30.6 | 0.00 | 0.00 | 0.00 | 38 | 1019.3 |
| 20260501202426 | 13 | 324 | 20.9 | 24.1 | 0.00 | 0.00 | 0.00 | 38 | 1019.2 |
| 20260501201923 | 13 | 332 | 16.1 | 17.7 | 0.00 | 0.00 | 0.00 | 38 | 1019.4 |
| 20260501201420 | 13 | 5 | 16.1 | 19.3 | 0.00 | 0.00 | 0.00 | 38 | 1019.4 |
| 20260501200917 | 13 | 11 | 16.1 | 22.5 | 0.00 | 0.00 | 0.00 | 36 | 1019.3 |
| 20260501200414 | 13 | 352 | 20.9 | 32.2 | 0.00 | 0.00 | 0.00 | 37 | 1019.4 |
| 20260501195912 | 13 | 348 | 14.5 | 27.4 | 0.00 | 0.00 | 0.00 | 37 | 1019.5 |
| 20260501195408 | 13 | 11 | 14.5 | 24.1 | 0.00 | 0.00 | 0.00 | 38 | 1019.4 |
| 20260501194903 | 13 | 343 | 20.9 | 29.0 | 0.00 | 0.00 | 0.00 | 37 | 1019.3 |
| 20260501194400 | 13 | 318 | 38.6 | 38.6 | 0.00 | 0.00 | 0.00 | 41 | 1019.4 |
| 20260501193855 | 13 | 19 | 17.7 | 22.5 | 0.00 | 0.00 | 0.00 | 38 | 1019.5 |
| 20260501193354 | 13 | 9 | 14.5 | 32.2 | 0.00 | 0.00 | 0.00 | 40 | 1019.2 |
| 20260501192851 | 13 | 344 | 11.3 | 20.9 | 0.00 | 0.00 | 0.00 | 43 | 1019.5 |
| 20260501192348 | 13 | 8 | 24.1 | 29.0 | 0.00 | 0.00 | 0.00 | 39 | 1019.6 |
| 20260501191845 | 12 | 345 | 14.5 | 27.4 | 0.00 | 0.00 | 0.00 | 40 | 1019.5 |
| 20260501191343 | 13 | 354 | 14.5 | 25.7 | 0.00 | 0.00 | 0.00 | 45 | 1019.3 |
| 20260501190839 | 13 | 18 | 9.7 | 25.7 | 0.00 | 0.00 | 0.00 | 40 | 1019.5 |
| 20260501190336 | 13 | 357 | 16.1 | 25.7 | 0.00 | 0.00 | 0.00 | 40 | 1019.3 |
| 20260501185831 | 13 | 340 | 12.9 | 17.7 | 0.00 | 0.00 | 0.00 | 42 | 1019.4 |
| 20260501185327 | 13 | 353 | 14.5 | 20.9 | 0.00 | 0.00 | 0.00 | 43 | 1019.3 |
| 20260501184823 | 12 | 8 | 11.3 | 19.3 | 0.00 | 0.00 | 0.00 | 44 | 1019.6 |
| 20260501184319 | 13 | 339 | 25.7 | 30.6 | 0.00 | 0.00 | 0.00 | 43 | 1019.2 |
| 20260501183815 | 12 | 0 | 11.3 | 19.3 | 0.00 | 0.00 | 0.00 | 46 | 1019.4 |
| 20260501183312 | 13 | 353 | 11.3 | 22.5 | 0.00 | 0.00 | 0.00 | 47 | 1019.3 |
| 20260501182808 | 12 | 359 | 12.9 | 16.1 | 0.00 | 0.00 | 0.00 | 46 | 1019.3 |
| 20260501182306 | 12 | 356 | 9.7 | 22.5 | 0.00 | 0.00 | 0.00 | 45 | 1019.6 |
| 20260501181802 | 12 | 5 | 14.5 | 20.9 | 0.00 | 0.00 | 0.00 | 46 | 1019.6 |
| 20260501181259 | 12 | 358 | 9.7 | 22.5 | 0.00 | 0.00 | 0.00 | 47 | 1019.4 |
| 20260501180757 | 12 | 0 | 16.1 | 22.5 | 0.00 | 0.00 | 0.00 | 48 | 1019.5 |
| 20260501180253 | 12 | 322 | 20.9 | 29.0 | 0.00 | 0.00 | 0.00 | 50 | 1019.5 |
| 20260501175749 | 11 | 322 | 22.5 | 29.0 | 0.00 | 0.00 | 0.00 | 54 | 1019.6 |
| 20260501175247 | 12 | 358 | 19.3 | 27.4 | 0.00 | 0.00 | 0.00 | 46 | 1019.8 |
| 20260501174743 | 12 | 327 | 27.4 | 30.6 | 0.00 | 0.00 | 0.00 | 50 | 1019.6 |
| 20260501174240 | 11 | 22 | 14.5 | 27.4 | 0.00 | 0.00 | 0.00 | 50 | 1019.7 |
| 20260501173738 | 12 | 335 | 19.3 | 24.1 | 0.00 | 0.00 | 0.00 | 50 | 1019.7 |
| 20260501173235 | 11 | 339 | 25.7 | 29.0 | 0.00 | 0.00 | 0.00 | 52 | 1019.8 |
| 20260501172731 | 12 | 5 | 12.9 | 17.7 | 0.00 | 0.00 | 0.00 | 50 | 1019.9 |
| 20260501172226 | 12 | 354 | 11.3 | 29.0 | 0.00 | 0.00 | 0.00 | 51 | 1019.8 |
| 20260501171722 | 11 | 2 | 17.7 | 24.1 | 0.00 | 0.00 | 0.00 | 52 | 1019.8 |
| 20260501171220 | 11 | 20 | 9.7 | 19.3 | 0.00 | 0.00 | 0.00 | 54 | 1020.0 |
| 20260501170716 | 11 | 11 | 17.7 | 30.6 | 0.00 | 0.00 | 0.00 | 52 | 1019.8 |
| 20260501170213 | 11 | 21 | 16.1 | 20.9 | 0.00 | 0.00 | 0.00 | 52 | 1019.9 |
| 20260501165711 | 11 | 29 | 17.7 | 19.3 | 0.00 | 0.00 | 0.00 | 55 | 1019.8 |
| 20260501165208 | 11 | 357 | 19.3 | 43.5 | 0.00 | 0.00 | 0.00 | 58 | 1019.8 |
| 20260501164706 | 11 | 349 | 16.1 | 22.5 | 0.00 | 0.00 | 0.00 | 57 | 1019.8 |
| 20260501164202 | 11 | 356 | 12.9 | 20.9 | 0.00 | 0.00 | 0.00 | 60 | 1020.0 |
| 20260501163658 | 11 | 29 | 17.7 | 25.7 | 0.00 | 0.00 | 0.00 | 60 | 1019.8 |
| 20260501163156 | 11 | 358 | 14.5 | 19.3 | 0.00 | 0.00 | 0.00 | 58 | 1019.7 |
| 20260501162652 | 11 | 358 | 11.3 | 24.1 | 0.00 | 0.00 | 0.00 | 59 | 1019.6 |
| 20260501162148 | 11 | 7 | 17.7 | 24.1 | 0.00 | 0.00 | 0.00 | 60 | 1019.7 |
| 20260501161646 | 11 | 352 | 20.9 | 30.6 | 0.00 | 0.00 | 0.00 | 58 | 1019.7 |
| 20260501161143 | 11 | 2 | 19.3 | 24.1 | 0.00 | 0.00 | 0.00 | 60 | 1019.6 |
| 20260501160639 | 10 | 2 | 14.5 | 24.1 | 0.00 | 0.00 | 0.00 | 60 | 1019.6 |
| 20260501160137 | 10 | 352 | 22.5 | 24.1 | 0.00 | 0.00 | 0.00 | 62 | 1019.5 |
| 20260501155633 | 10 | 357 | 19.3 | 25.7 | 0.00 | 0.00 | 0.00 | 63 | 1019.6 |
| 20260501155131 | 10 | 12 | 19.3 | 29.0 | 0.00 | 0.00 | 0.00 | 61 | 1019.5 |
| 20260501154628 | 10 | 24 | 19.3 | 24.1 | 0.00 | 0.00 | 0.00 | 61 | 1019.5 |
| 20260501154125 | 10 | 3 | 24.1 | 30.6 | 0.00 | 0.00 | 0.00 | 63 | 1019.5 |
| 20260501153622 | 10 | 341 | 20.9 | 32.2 | 0.00 | 0.00 | 0.00 | 63 | 1019.7 |
| 20260501153119 | 10 | 336 | 22.5 | 22.5 | 0.00 | 0.00 | 0.00 | 64 | 1019.6 |